When you browse on this site, cookies collect data to enhance your experience and personalize the content and advertising you see.
Visit our Privacy Policy to learn more. By continuing to use the site, you agree to this use of cookies and data.
  • En España
  • Lista de países
  • Para 7 días
  • Temperatura del agua
  • Mapa Satelital
  • El tiempo en el mapa
  • Informadores
  • user-avatar
    Iniciar sesión

    Tiempo cada hora Ust-Kolpna

    Hoy, 22 Marzo, Viernes

    Tiempo Temperatura Precipitaciones Viento Presión Humedad
    00:00 -2°C° 0 mm 2 mps 749 mmHg 94%
    01:00 -2°C° 0 mm 2 mps 748 mmHg 93%
    02:00 -2°C° 0 mm 2 mps 748 mmHg 93%
    03:00 -3°C° 0 mm 2 mps 748 mmHg 92%
    04:00 -3°C° 0 mm 2 mps 747 mmHg 92%
    05:00 -4°C° 0 mm 3 mps 747 mmHg 92%
    06:00 -4°C° 0 mm 3 mps 746 mmHg 92%
    07:00 -3°C° 0.1 mm 4 mps 745 mmHg 91%
    08:00 -2°C° 0.1 mm 5 mps 744 mmHg 90%
    09:00 -2°C° 0 mm 6 mps 743 mmHg 88%
    10:00 -1°C° 0.8 mm 6 mps 742 mmHg 90%
    11:00 -1°C° 0.8 mm 7 mps 741 mmHg 92%
    12:00 -1°C° 0.8 mm 7 mps 740 mmHg 94%
    13:00 -1°C° 0.7 mm 7 mps 739 mmHg 94%
    14:00 -1°C° 0.7 mm 7 mps 739 mmHg 94%
    15:00 -1°C° 0.7 mm 7 mps 739 mmHg 95%
    16:00 -1°C° 0.5 mm 7 mps 739 mmHg 91%
    17:00 -1°C° 0.5 mm 8 mps 739 mmHg 87%
    18:00 -2°C° 0.5 mm 8 mps 739 mmHg 83%
    19:00 -2°C° 0.1 mm 8 mps 740 mmHg 83%
    20:00 -4°C° 0.1 mm 8 mps 740 mmHg 83%
    21:00 -3°C° 0.1 mm 7 mps 740 mmHg 83%
    22:00 -3°C° 0.1 mm 7 mps 741 mmHg 84%
    23:00 -3°C° 0.1 mm 7 mps 741 mmHg 85%

    Mañana, 23 Marzo, Sábado

    Tiempo Temperatura Precipitaciones Viento Presión Humedad
    00:00 -3°C° 0.1 mm 7 mps 741 mmHg 86%
    01:00 -3°C° 0.1 mm 7 mps 741 mmHg 87%
    02:00 -3°C° 0.1 mm 7 mps 741 mmHg 87%
    03:00 -3°C° 0.1 mm 7 mps 741 mmHg 88%
    04:00 -3°C° 0.2 mm 7 mps 742 mmHg 89%
    05:00 -3°C° 0.2 mm 7 mps 743 mmHg 90%
    06:00 -3°C° 0.2 mm 6 mps 743 mmHg 91%
    07:00 -3°C° 0 mm 6 mps 744 mmHg 90%
    08:00 -3°C° 0 mm 6 mps 745 mmHg 90%
    09:00 -3°C° 0 mm 6 mps 746 mmHg 89%
    10:00 -2°C° 0 mm 6 mps 747 mmHg 89%
    11:00 -2°C° 0 mm 6 mps 748 mmHg 88%
    12:00 -2°C° 0 mm 6 mps 748 mmHg 88%
    13:00 -2°C° 0 mm 6 mps 749 mmHg 87%
    14:00 -1°C° 0 mm 5 mps 749 mmHg 87%
    15:00 -1°C° 0 mm 5 mps 749 mmHg 86%
    16:00 -2°C° 0 mm 4 mps 749 mmHg 87%
    17:00 -1°C° 0 mm 3 mps 749 mmHg 87%
    18:00 -1°C° 0 mm 3 mps 749 mmHg 87%
    19:00 -1°C° 0 mm 2 mps 750 mmHg 88%
    20:00 -1°C° 0 mm 2 mps 750 mmHg 89%
    21:00 -1°C° 0 mm 2 mps 750 mmHg 90%
    22:00 +1°C° 0 mm 1 mps 750 mmHg 89%
    23:00 0°C° 0 mm 1 mps 750 mmHg 88%

    Pasado mañana, 24 Marzo, Domingo

    Tiempo Temperatura Precipitaciones Viento Presión Humedad
    00:00 0°C° 0 mm 1 mps 750 mmHg 88%
    01:00 0°C° 0 mm 1 mps 749 mmHg 87%
    02:00 0°C° 0 mm 1 mps 749 mmHg 86%
    03:00 -1°C° 0 mm 1 mps 748 mmHg 85%
    04:00 -3°C° 0 mm 2 mps 748 mmHg 86%
    05:00 -4°C° 0 mm 2 mps 747 mmHg 87%
    06:00 -4°C° 0 mm 2 mps 747 mmHg 88%
    07:00 -4°C° 0 mm 3 mps 746 mmHg 88%
    08:00 -2°C° 0 mm 3 mps 746 mmHg 87%
    09:00 -2°C° 0 mm 4 mps 746 mmHg 87%
    10:00 -2°C° 0.1 mm 4 mps 745 mmHg 88%
    11:00 -1°C° 0.1 mm 5 mps 745 mmHg 90%
    12:00 -1°C° 0.1 mm 5 mps 744 mmHg 91%
    13:00 -1°C° 0.2 mm 5 mps 744 mmHg 92%
    14:00 -1°C° 0.2 mm 5 mps 743 mmHg 92%
    15:00 -1°C° 0.2 mm 5 mps 743 mmHg 93%
    16:00 -1°C° 0.1 mm 4 mps 742 mmHg 93%
    17:00 0°C° 0.1 mm 4 mps 742 mmHg 93%
    18:00 +1°C° 0.1 mm 3 mps 742 mmHg 94%
    19:00 0°C° 0 mm 3 mps 742 mmHg 93%
    20:00 0°C° 0 mm 3 mps 742 mmHg 92%
    21:00 -1°C° 0 mm 3 mps 742 mmHg 91%
    22:00 -1°C° 0 mm 3 mps 742 mmHg 90%
    23:00 -1°C° 0 mm 3 mps 742 mmHg 89%

    25 Marzo, Lunes

    Tiempo Temperatura Precipitaciones Viento Presión Humedad
    00:00 -2°C° 0 mm 3 mps 742 mmHg 88%
    01:00 -2°C° 0 mm 3 mps 742 mmHg 88%
    02:00 -2°C° 0 mm 3 mps 742 mmHg 87%
    03:00 -4°C° 0 mm 3 mps 742 mmHg 87%
    04:00 -3°C° 0 mm 2 mps 742 mmHg 86%
    05:00 -3°C° 0 mm 2 mps 742 mmHg 86%
    06:00 -3°C° 0 mm 2 mps 742 mmHg 85%
    07:00 -2°C° 0 mm 3 mps 742 mmHg 83%
    08:00 -1°C° 0 mm 3 mps 742 mmHg 81%
    09:00 -1°C° 0 mm 3 mps 742 mmHg 79%
    10:00 0°C° 0 mm 3 mps 742 mmHg 77%
    11:00 +1°C° 0 mm 3 mps 742 mmHg 75%
    12:00 +1°C° 0 mm 4 mps 742 mmHg 74%
    13:00 +1°C° 0 mm 4 mps 741 mmHg 72%
    14:00 +3°C° 0 mm 3 mps 741 mmHg 70%
    15:00 +3°C° 0 mm 3 mps 741 mmHg 68%
    16:00 +2°C° 0 mm 3 mps 741 mmHg 70%
    17:00 +3°C° 0 mm 2 mps 741 mmHg 73%
    18:00 +2°C° 0 mm 2 mps 741 mmHg 75%
    19:00 +1°C° 0 mm 2 mps 742 mmHg 76%
    20:00 +1°C° 0 mm 2 mps 742 mmHg 78%
    21:00 -1°C° 0 mm 2 mps 742 mmHg 80%
    22:00 -1°C° 0 mm 2 mps 742 mmHg 80%
    23:00 -1°C° 0 mm 2 mps 742 mmHg 81%

    26 Marzo, Martes

    Tiempo Temperatura Precipitaciones Viento Presión Humedad
    00:00 -1°C° 0 mm 2 mps 742 mmHg 81%
    01:00 -1°C° 0 mm 2 mps 743 mmHg 81%
    02:00 -1°C° 0 mm 2 mps 743 mmHg 80%
    03:00 -2°C° 0 mm 2 mps 743 mmHg 80%
    04:00 -2°C° 0 mm 2 mps 743 mmHg 81%
    05:00 -2°C° 0 mm 2 mps 743 mmHg 82%
    06:00 -2°C° 0 mm 2 mps 743 mmHg 83%
    07:00 -1°C° 0 mm 2 mps 743 mmHg 82%
    08:00 -1°C° 0 mm 2 mps 743 mmHg 81%
    09:00 +1°C° 0 mm 2 mps 744 mmHg 79%
    10:00 +2°C° 0 mm 2 mps 744 mmHg 76%
    11:00 +3°C° 0 mm 2 mps 744 mmHg 73%
    12:00 +3°C° 0 mm 3 mps 744 mmHg 70%
    13:00 +3°C° 0.2 mm 3 mps 744 mmHg 69%
    14:00 +3°C° 0.2 mm 4 mps 744 mmHg 67%
    15:00 +3°C° 0.2 mm 5 mps 744 mmHg 66%
    16:00 +3°C° 0.1 mm 4 mps 744 mmHg 70%
    17:00 0°C° 0.1 mm 4 mps 744 mmHg 74%
    18:00 -1°C° 0.1 mm 4 mps 744 mmHg 78%
    19:00 -1°C° 0 mm 3 mps 745 mmHg 78%
    20:00 -1°C° 0 mm 3 mps 746 mmHg 78%
    21:00 -2°C° 0 mm 3 mps 746 mmHg 78%
    22:00 -2°C° 0 mm 3 mps 747 mmHg 78%
    23:00 -4°C° 0 mm 3 mps 747 mmHg 77%

    27 Marzo, Miércoles

    Tiempo Temperatura Precipitaciones Viento Presión Humedad
    00:00 -4°C° 0 mm 3 mps 747 mmHg 77%
    01:00 -4°C° 0 mm 3 mps 748 mmHg 77%
    02:00 -4°C° 0 mm 3 mps 748 mmHg 77%
    03:00 -4°C° 0 mm 3 mps 748 mmHg 77%
    04:00 -4°C° 0 mm 3 mps 748 mmHg 76%
    05:00 -4°C° 0 mm 3 mps 748 mmHg 75%
    06:00 -4°C° 0 mm 4 mps 748 mmHg 75%
    07:00 -3°C° 0 mm 4 mps 748 mmHg 69%
    08:00 -2°C° 0 mm 5 mps 748 mmHg 63%
    09:00 -2°C° 0 mm 6 mps 748 mmHg 57%
    10:00 -1°C° 0 mm 6 mps 748 mmHg 55%
    11:00 +1°C° 0 mm 6 mps 748 mmHg 52%
    12:00 +2°C° 0 mm 6 mps 748 mmHg 50%
    13:00 +2°C° 0 mm 6 mps 748 mmHg 51%
    14:00 +3°C° 0 mm 6 mps 748 mmHg 51%
    15:00 +3°C° 0 mm 7 mps 748 mmHg 52%
    16:00 +3°C° 0 mm 6 mps 748 mmHg 58%
    17:00 +2°C° 0 mm 5 mps 748 mmHg 63%
    18:00 +2°C° 0 mm 5 mps 748 mmHg 68%
    19:00 +1°C° 0 mm 5 mps 748 mmHg 72%
    20:00 0°C° 0 mm 5 mps 748 mmHg 76%
    21:00 -1°C° 0 mm 5 mps 748 mmHg 81%
    22:00 -1°C° 0 mm 5 mps 748 mmHg 81%
    23:00 0°C° 0 mm 5 mps 748 mmHg 81%
    Mostrar más